[[{"header":{"parameterUnit":"m.s-1","parameterCategory":2,"la1":30.2992,"la2":30.254,"lo1":-89.0895,"lo2":-89.0443,"dy":0.0025,"dx":0.0025,"nx":19,"ny":19,"refTime":"2026-03-18T21:00:00:Z","depth":"0","parameterNumber":2,"parameterNumberName":"U-component_of_CURRENTS"},"data":[0,0,0,0.0822,0.082,0.0737,0.0737,0.0832,0.0833,0,0,0,0,0,0,0,0,0,0,0,0.086,0.0859,0.0822,0.082,0.0737,0.0737,0.0831,0.0833,0,0,0,0,0,0,0,0,0,0,0,0.086,0.0859,0.0859,0.082,0.0737,0.0737,0.0831,0.0843,0,0,0,0,0,0,0,0,0,0,0.0899,0.0875,0.0859,0.0859,0.0819,0.0737,0.0736,0.0842,0.0843,0.0928,0,0.0917,0,0.0881,0.0844,0.0845,0,0,0,0.0818,0.0874,0.0882,0.0859,0.0819,0.0737,0.0774,0.0841,0.0842,0.0931,0.0918,0.0919,0.0882,0.0846,0.0846,0.0966,0.0966,0,0,0.0822,0.082,0.088,0.0883,0.0805,0.0776,0.0771,0.0839,0.0832,0.0918,0.092,0.0884,0.0847,0.0848,0.0966,0.0966,0,0,0,0.0837,0.0823,0.0824,0.0881,0.0851,0.0774,0.0768,0.0828,0.0837,0.0921,0.0885,0.0848,0.085,0.0966,0.0966,0.0875,0,0,0,0.084,0.0832,0.0826,0.082,0.0849,0.0803,0.0755,0.0832,0.0837,0.0885,0.0848,0.0851,0.0966,0.0966,0.0877,0.0838,0,0,0,0.0862,0.0833,0.0832,0.0821,0.0787,0.08,0.0809,0.083,0.0817,0.0845,0.0852,0.0966,0.0966,0.0879,0.0842,0.0834,0,0,0,0.0851,0.0823,0.0832,0.0783,0.0788,0.0761,0.0807,0.0786,0.0802,0.0848,0.0966,0.0966,0.088,0.0845,0.0836,0.0821,0.081,0,0,0.0811,0.0818,0.079,0.0795,0.0752,0.0771,0.0747,0.0788,0.0842,0.0958,0.0959,0.0876,0.0842,0.0835,0.0829,0.0817,0,0,0,0.0772,0.0765,0.0747,0.0724,0.0715,0.0712,0.0752,0.0781,0.0833,0.0852,0.0905,0.0887,0.0885,0.0881,0.0872,0.0827,0.0966,0.0966,0.0966,0.075,0.0737,0.0699,0.0698,0.0684,0.069,0.069,0.0754,0.082,0.083,0.0833,0.0794,0.0789,0.0782,0.0735,0.0858,0.0858,0.0857,0.0857,0.0717,0.0688,0.0689,0.0647,0.0656,0.0655,0.0686,0.0704,0.0745,0.0794,0.0796,0.0811,0.0767,0.0721,0.0852,0.0853,0.0853,0.0854,0.0854,0.0715,0.0689,0.0678,0.0627,0.0609,0.0613,0.0598,0.0616,0.0672,0.0653,0.0695,0.0697,0.0641,0.0666,0.0665,0.0665,0.0665,0.0665,0.0665,0.0691,0.0678,0.0635,0.0593,0.0557,0.0532,0.0534,0.0542,0.0563,0.0606,0.0607,0.0624,0.0736,0.0725,0.0661,0.0662,0.0662,0.0663,0.0663,0.0618,0.0626,0.0559,0.052,0.0458,0.0436,0.0448,0.0467,0.0483,0.0493,0.0508,0.0597,0.0632,0.0641,0.063,0.0545,0.0545,0.0545,0.0545,0.0569,0.0569,0.0483,0.0428,0.038,0.0393,0.0367,0.039,0.0418,0.0429,0.0432,0.0451,0.0458,0.0485,0.0497,0.0485,0.0365,0.0365,0.0365,0.0501,0.0496,0.0425,0.0401,0.035,0.0362,0.0335,0.0329,0.0364,0.0353,0.0366,0.0373,0.04,0.0415,0.0462,0.0482,0.0466,0,0]},{"header":{"parameterUnit":"m.s-1","parameterCategory":2,"la1":30.2992,"la2":30.254,"lo1":-89.0895,"lo2":-89.0443,"dy":0.0025,"dx":0.0025,"nx":19,"ny":19,"refTime":"2026-03-18T21:00:00:Z","depth":"0","parameterNumber":3,"parameterNumberName":"V-component_of_CURRENTS"},"data":[0,0,0,-0.1502,-0.1499,-0.1362,-0.1362,-0.1359,-0.136,0,0,0,0,0,0,0,0,0,0,0,-0.155,-0.1549,-0.1502,-0.1499,-0.1363,-0.1362,-0.1359,-0.136,0,0,0,0,0,0,0,0,0,0,0,-0.155,-0.1549,-0.1548,-0.1499,-0.1363,-0.1362,-0.1359,-0.1416,0,0,0,0,0,0,0,0,0,0,-0.1527,-0.1535,-0.1549,-0.1548,-0.1498,-0.1363,-0.1362,-0.1417,-0.1413,-0.1474,0,-0.1454,0,-0.1417,-0.1365,-0.1365,0,0,0,-0.1487,-0.1538,-0.152,-0.1548,-0.1497,-0.1363,-0.1421,-0.1413,-0.1409,-0.1469,-0.1453,-0.1452,-0.1417,-0.1365,-0.1365,-0.1449,-0.145,0,0,-0.1495,-0.151,-0.1522,-0.1517,-0.1467,-0.1425,-0.1417,-0.1408,-0.1401,-0.1453,-0.1451,-0.1417,-0.1365,-0.1366,-0.1449,-0.1449,0,0,0,-0.1524,-0.1516,-0.1492,-0.1518,-0.1485,-0.1422,-0.1412,-0.14,-0.1397,-0.145,-0.1416,-0.1366,-0.1367,-0.1448,-0.1449,-0.1419,0,0,0,-0.1528,-0.1534,-0.1496,-0.1502,-0.1484,-0.1414,-0.1404,-0.1397,-0.1394,-0.1416,-0.1366,-0.1367,-0.1448,-0.1449,-0.1419,-0.1333,0,0,0,-0.1555,-0.1536,-0.1525,-0.1503,-0.145,-0.1412,-0.1405,-0.1394,-0.1376,-0.1365,-0.1368,-0.1448,-0.1449,-0.1419,-0.1335,-0.1285,0,0,0,-0.1569,-0.152,-0.1525,-0.1473,-0.1452,-0.1411,-0.1404,-0.137,-0.1358,-0.1366,-0.1448,-0.1449,-0.1419,-0.1337,-0.1287,-0.12,-0.1183,0,0,-0.1512,-0.1513,-0.1486,-0.1488,-0.1442,-0.1428,-0.1408,-0.139,-0.14,-0.146,-0.146,-0.1419,-0.1336,-0.1285,-0.1252,-0.1233,0,0,0,-0.1472,-0.1463,-0.1445,-0.1427,-0.1407,-0.1391,-0.1397,-0.1403,-0.1412,-0.1398,-0.1446,-0.1393,-0.1362,-0.1317,-0.1302,-0.1257,-0.1453,-0.1453,-0.1453,-0.1511,-0.1479,-0.1438,-0.1415,-0.1399,-0.1391,-0.1367,-0.1392,-0.1435,-0.1441,-0.1392,-0.1354,-0.131,-0.1297,-0.1254,-0.1458,-0.1458,-0.1458,-0.1458,-0.1482,-0.1452,-0.1445,-0.1376,-0.1385,-0.1384,-0.1378,-0.138,-0.1346,-0.1396,-0.1371,-0.1315,-0.1278,-0.1239,-0.1456,-0.1456,-0.1456,-0.1457,-0.1457,-0.1533,-0.1486,-0.1456,-0.1369,-0.1343,-0.133,-0.1268,-0.1254,-0.1277,-0.1233,-0.118,-0.118,-0.1118,-0.1234,-0.1233,-0.1233,-0.1232,-0.1232,-0.1231,-0.1555,-0.151,-0.142,-0.1329,-0.1277,-0.122,-0.1157,-0.1121,-0.1067,-0.1083,-0.1083,-0.1095,-0.1284,-0.1262,-0.1223,-0.1224,-0.1225,-0.1226,-0.1227,-0.1495,-0.1475,-0.1348,-0.127,-0.1128,-0.1069,-0.1032,-0.0938,-0.0888,-0.0851,-0.087,-0.1018,-0.0997,-0.101,-0.0982,-0.0871,-0.0871,-0.087,-0.087,-0.1461,-0.1437,-0.1262,-0.1131,-0.1018,-0.0987,-0.0891,-0.0839,-0.0749,-0.07,-0.07,-0.0756,-0.0773,-0.0743,-0.0762,-0.0732,-0.056,-0.0559,-0.0559,-0.1383,-0.1359,-0.1227,-0.1101,-0.0958,-0.0929,-0.0855,-0.0816,-0.0664,-0.0546,-0.0651,-0.0664,-0.0754,-0.0784,-0.0752,-0.0781,-0.0737,0,0]}],[{"header":{"parameterUnit":"m.s-1","parameterCategory":2,"la1":30.2992,"la2":30.254,"lo1":-89.0895,"lo2":-89.0443,"dy":0.0025,"dx":0.0025,"nx":19,"ny":19,"refTime":"2026-03-18T21:00:00:Z","depth":"2","parameterNumber":2,"parameterNumberName":"U-component_of_CURRENTS"},"data":[0,0,0,-0.0888,-0.0887,-0.082,-0.082,-0.0758,-0.0757,0,0,0,0,0,0,0,0,0,0,0,-0.0886,-0.0885,-0.0888,-0.0887,-0.082,-0.082,-0.0758,-0.0757,0,0,0,0,0,0,0,0,0,0,0,-0.0886,-0.0885,-0.0884,-0.0886,-0.082,-0.082,-0.0758,-0.0802,0,0,0,0,0,0,0,0,0,0,-0.0863,-0.0868,-0.0885,-0.0884,-0.0886,-0.082,-0.082,-0.0803,-0.0799,-0.0795,0,-0.0763,0,-0.0771,-0.0754,-0.0754,0,0,0,-0.0884,-0.0872,-0.0849,-0.0883,-0.0885,-0.082,-0.0849,-0.0801,-0.0796,-0.079,-0.0762,-0.0761,-0.077,-0.0754,-0.0753,-0.068,-0.0679,0,0,-0.0887,-0.0885,-0.0852,-0.0845,-0.084,-0.0851,-0.0847,-0.0797,-0.0784,-0.0762,-0.076,-0.0769,-0.0753,-0.0753,-0.068,-0.068,0,0,0,-0.09,-0.0887,-0.0864,-0.0847,-0.0839,-0.0849,-0.0845,-0.0786,-0.0775,-0.0759,-0.0768,-0.0753,-0.0752,-0.0681,-0.068,-0.0617,0,0,0,-0.0902,-0.0895,-0.0866,-0.0865,-0.0839,-0.0812,-0.0834,-0.0778,-0.0774,-0.0768,-0.0753,-0.0752,-0.0681,-0.068,-0.0619,-0.0572,0,0,0,-0.0894,-0.0896,-0.0877,-0.0865,-0.084,-0.0813,-0.08,-0.0777,-0.078,-0.0754,-0.0752,-0.0681,-0.068,-0.0622,-0.0577,-0.0518,0,0,0,-0.091,-0.0861,-0.0876,-0.0821,-0.084,-0.0785,-0.08,-0.0738,-0.0704,-0.0753,-0.0681,-0.068,-0.0622,-0.058,-0.0521,-0.0696,-0.0694,0,0,-0.086,-0.0854,-0.0822,-0.0835,-0.0776,-0.0796,-0.075,-0.07,-0.0696,-0.07,-0.0698,-0.0618,-0.0578,-0.0519,-0.0637,-0.0637,0,0,0,-0.0815,-0.079,-0.0772,-0.0741,-0.0716,-0.0709,-0.0685,-0.068,-0.0636,-0.0675,-0.0615,-0.0591,-0.0556,-0.0669,-0.0669,-0.0675,-0.0675,-0.0675,-0.0675,-0.0761,-0.0747,-0.0698,-0.068,-0.0651,-0.0635,-0.0618,-0.0611,-0.0604,-0.0569,-0.0538,-0.0446,-0.0567,-0.0568,-0.0547,-0.0547,-0.0547,-0.0547,-0.0546,-0.0692,-0.0656,-0.0653,-0.0585,-0.0582,-0.0535,-0.0546,-0.0529,-0.0472,-0.0496,-0.0465,-0.0595,-0.0565,-0.0541,-0.0542,-0.0543,-0.0543,-0.0544,-0.0544,-0.0639,-0.0624,-0.058,-0.0515,-0.0452,-0.0434,-0.0405,-0.0371,-0.0382,-0.0346,-0.0437,-0.0441,-0.0393,-0.0296,-0.0295,-0.0295,-0.0295,-0.0294,-0.0294,-0.0594,-0.057,-0.0519,-0.0435,-0.0371,-0.0305,-0.0256,-0.027,-0.0304,-0.0363,-0.0366,-0.0361,-0.0369,-0.0378,-0.0287,-0.0288,-0.0289,-0.029,-0.029,-0.0536,-0.0537,-0.0456,-0.0394,-0.0285,-0.0282,-0.0238,-0.0334,-0.0307,-0.0389,-0.0404,-0.0404,-0.0435,-0.0439,-0.0451,-0.0383,-0.0383,-0.0383,-0.0383,-0.0522,-0.0516,-0.0435,-0.0356,-0.0297,-0.0278,-0.0412,-0.0537,-0.0568,-0.0574,-0.0565,-0.0682,-0.0676,-0.0726,-0.0724,-0.0743,-0.075,-0.075,-0.0751,-0.0529,-0.0489,-0.0434,-0.0355,-0.0289,-0.0347,-0.0531,-0.0735,-0.0771,-0.0758,-0.0559,-0.0421,-0.0578,-0.0573,-0.0641,-0.064,-0.0668,0,0]},{"header":{"parameterUnit":"m.s-1","parameterCategory":2,"la1":30.2992,"la2":30.254,"lo1":-89.0895,"lo2":-89.0443,"dy":0.0025,"dx":0.0025,"nx":19,"ny":19,"refTime":"2026-03-18T21:00:00:Z","depth":"2","parameterNumber":3,"parameterNumberName":"V-component_of_CURRENTS"},"data":[0,0,0,0.0859,0.0858,0.0767,0.0766,0.0539,0.0537,0,0,0,0,0,0,0,0,0,0,0,0.0882,0.0882,0.0859,0.0858,0.0767,0.0766,0.0539,0.0537,0,0,0,0,0,0,0,0,0,0,0,0.0882,0.0882,0.0882,0.0858,0.0767,0.0766,0.054,0.063,0,0,0,0,0,0,0,0,0,0,0.0729,0.0766,0.0882,0.0882,0.0857,0.0767,0.0766,0.0635,0.0624,0.0557,0,0.0557,0,0.0554,0.0522,0.0521,0,0,0,0.0831,0.0775,0.0767,0.0882,0.0857,0.0768,0.08,0.0629,0.0617,0.0542,0.0554,0.0546,0.055,0.052,0.0519,0.0371,0.0371,0,0,0.0836,0.0841,0.0776,0.076,0.0848,0.0803,0.0798,0.0623,0.0603,0.0553,0.0541,0.0546,0.0519,0.0517,0.0371,0.0371,0,0,0,0.0868,0.0844,0.0841,0.0768,0.0767,0.0801,0.0795,0.0611,0.0615,0.0539,0.0543,0.0517,0.0515,0.0371,0.0371,0.0467,0,0,0,0.087,0.0866,0.0844,0.0842,0.0772,0.0701,0.0787,0.0627,0.0608,0.0545,0.0517,0.0512,0.0371,0.0371,0.0465,0.0452,0,0,0,0.0884,0.0866,0.0865,0.0844,0.082,0.0705,0.0698,0.0623,0.0611,0.0521,0.0512,0.0371,0.0371,0.0462,0.0449,0.0438,0,0,0,0.0878,0.0884,0.0865,0.0859,0.0821,0.0764,0.0699,0.0635,0.0565,0.0516,0.0371,0.0371,0.0461,0.0447,0.0437,0.0432,0.0438,0,0,0.0889,0.0884,0.0882,0.0865,0.0833,0.0774,0.0719,0.061,0.0543,0.0415,0.0412,0.0466,0.0449,0.0438,0.0445,0.045,0,0,0,0.0888,0.0885,0.0868,0.0846,0.0801,0.0753,0.0657,0.0615,0.0533,0.0509,0.0443,0.0427,0.0418,0.0412,0.0417,0.0372,0.0372,0.0372,0.0372,0.0836,0.085,0.0839,0.0838,0.08,0.0724,0.0686,0.0609,0.054,0.0535,0.0492,0.0521,0.0519,0.0521,0.0503,0.0503,0.0504,0.0504,0.0504,0.0823,0.0806,0.0831,0.0805,0.0769,0.071,0.0652,0.0627,0.0575,0.0539,0.0529,0.0496,0.0531,0.0511,0.051,0.0509,0.0508,0.0508,0.0507,0.0745,0.0753,0.0749,0.0716,0.0685,0.0621,0.0586,0.0543,0.0584,0.0622,0.0558,0.0556,0.0552,0.0608,0.0608,0.0608,0.0608,0.0608,0.0608,0.0643,0.0686,0.0654,0.0604,0.0543,0.0472,0.0453,0.0483,0.0536,0.0606,0.0606,0.0554,0.0551,0.0554,0.0607,0.0607,0.0607,0.0607,0.0607,0.0558,0.0589,0.0516,0.0451,0.037,0.0342,0.033,0.0429,0.047,0.057,0.0598,0.0599,0.0545,0.0541,0.0542,0.0587,0.0587,0.0587,0.0587,0.0486,0.0514,0.0441,0.0368,0.0284,0.0294,0.0333,0.0366,0.0457,0.0436,0.0442,0.044,0.0446,0.0384,0.0383,0.0379,0.0382,0.0382,0.0381,0.045,0.0425,0.0341,0.0321,0.025,0.0307,0.0313,0.0344,0.0354,0.0366,0.0333,0.0588,0.0604,0.0605,0.0523,0.0518,0.0516,0,0]}],[{"header":{"parameterUnit":"m.s-1","parameterCategory":2,"la1":30.2992,"la2":30.254,"lo1":-89.0895,"lo2":-89.0443,"dy":0.0025,"dx":0.0025,"nx":19,"ny":19,"refTime":"2026-03-18T21:00:00:Z","depth":"4","parameterNumber":2,"parameterNumberName":"U-component_of_CURRENTS"},"data":[0,0,0,-0.1074,-0.1076,-0.1194,-0.1195,-0.1346,-0.1347,0,0,0,0,0,0,0,0,0,0,0,-0.1034,-0.1035,-0.1074,-0.1076,-0.1194,-0.1195,-0.1346,-0.1347,0,0,0,0,0,0,0,0,0,0,0,-0.1034,-0.1034,-0.1035,-0.1076,-0.1194,-0.1195,-0.1345,-0.126,0,0,0,0,0,0,0,0,0,0,-0.1146,-0.1111,-0.1034,-0.1035,-0.1077,-0.1194,-0.1195,-0.1256,-0.1265,-0.1287,0,-0.1298,0,-0.1319,-0.1356,-0.1356,0,0,0,-0.1091,-0.1103,-0.1125,-0.1035,-0.1078,-0.1194,-0.1145,-0.1261,-0.1272,-0.1299,-0.1301,-0.1306,-0.1322,-0.1356,-0.1357,-0.1514,-0.1514,0,0,-0.1085,-0.1069,-0.1118,-0.1132,-0.11,-0.1141,-0.1149,-0.1268,-0.128,-0.1301,-0.131,-0.1324,-0.1357,-0.1358,-0.1513,-0.1514,0,0,0,-0.1056,-0.1065,-0.1084,-0.1125,-0.1143,-0.1144,-0.1153,-0.1276,-0.1279,-0.1312,-0.1326,-0.1358,-0.136,-0.1512,-0.1513,-0.1545,0,0,0,-0.1053,-0.1046,-0.1081,-0.1075,-0.114,-0.1213,-0.1158,-0.1271,-0.1285,-0.1325,-0.1358,-0.1361,-0.1511,-0.1513,-0.1542,-0.1539,0,0,0,-0.103,-0.1045,-0.1053,-0.1074,-0.1117,-0.1211,-0.1223,-0.1275,-0.1293,-0.1356,-0.1361,-0.1511,-0.1512,-0.154,-0.1535,-0.1523,0,0,0,-0.1018,-0.1028,-0.1053,-0.1084,-0.1115,-0.1201,-0.1222,-0.13,-0.1355,-0.1359,-0.1511,-0.1513,-0.1539,-0.1533,-0.1521,-0.1247,0,0,0,-0.102,-0.1029,-0.1049,-0.1073,-0.1134,-0.1186,-0.1281,-0.1356,-0.139,-0.1473,-0.1477,-0.1543,-0.1535,-0.1522,-0.1355,0,0,0,0,-0.1044,-0.1052,-0.1079,-0.1124,-0.119,-0.1269,-0.1349,-0.1392,-0.1491,-0.1428,-0.1571,-0.1565,-0.1555,-0.1393,-0.1522,-0.1521,-0.1521,-0.1521,-0.1521,-0.1007,-0.1052,-0.1094,-0.1161,-0.1224,-0.1339,-0.1404,-0.1481,-0.1526,-0.1579,-0.1612,-0.1651,-0.1486,-0.1645,-0.1645,-0.1645,-0.1646,-0.1646,-0.1646,-0.0999,-0.1014,-0.1098,-0.1157,-0.1252,-0.1346,-0.1471,-0.1524,-0.1633,-0.1663,-0.1652,-0.1466,-0.165,-0.1649,-0.1648,-0.1648,-0.1648,-0.1647,-0.1647,-0.0943,-0.0958,-0.1021,-0.1118,-0.1234,-0.1363,-0.1391,-0.1544,-0.1637,-0.1674,-0.1497,-0.1662,-0.1631,-0.1687,-0.1687,-0.1687,-0.1687,-0.1687,-0.1687,-0.0852,-0.0914,-0.0946,-0.1086,-0.1148,-0.124,-0.1388,-0.1379,-0.1521,-0.1493,-0.1695,-0.1664,-0.1663,-0.1634,-0.1686,-0.1686,-0.1686,-0.1686,-0.1686,-0.0761,-0.0805,-0.083,-0.0884,-0.1002,-0.1075,-0.1207,-0.1176,-0.1191,-0.1169,-0.1373,-0.1389,-0.1339,-0.1345,-0.1303,-0.1259,-0.1255,-0.1252,0,-0.0689,-0.0716,-0.0718,-0.0728,-0.0771,-0.0931,-0.0852,-0.0879,-0.1025,-0.1054,-0.1206,-0.1443,-0.1452,-0.1398,-0.1398,-0.1349,0,0,0,-0.0637,-0.064,-0.0605,-0.0617,-0.0664,-0.071,-0.0824,-0.0791,-0.1062,-0.0888,-0.1166,-0.1189,-0.1313,-0.1684,-0.1645,-0.1643,-0.1594,0,0]},{"header":{"parameterUnit":"m.s-1","parameterCategory":2,"la1":30.2992,"la2":30.254,"lo1":-89.0895,"lo2":-89.0443,"dy":0.0025,"dx":0.0025,"nx":19,"ny":19,"refTime":"2026-03-18T21:00:00:Z","depth":"4","parameterNumber":3,"parameterNumberName":"V-component_of_CURRENTS"},"data":[0,0,0,-0.0061,-0.0061,-0.0036,-0.0036,0.0044,0.0045,0,0,0,0,0,0,0,0,0,0,0,-0.0071,-0.0072,-0.0061,-0.0061,-0.0036,-0.0036,0.0044,0.0045,0,0,0,0,0,0,0,0,0,0,0,-0.0071,-0.0072,-0.0072,-0.0061,-0.0036,-0.0036,0.0044,0.0018,0,0,0,0,0,0,0,0,0,0,-0.0011,-0.0023,-0.0072,-0.0072,-0.0061,-0.0036,-0.0036,0.0016,0.0019,0.0041,0,0.0028,0,0.0032,0.0049,0.005,0,0,0,-0.0042,-0.0025,-0.0034,-0.0072,-0.0061,-0.0036,-0.0042,0.0018,0.0021,0.0045,0.0029,0.0032,0.0033,0.005,0.005,0.0049,0.0049,0,0,-0.0044,-0.0046,-0.0037,-0.0032,-0.0075,-0.0043,-0.0042,0.002,0.0025,0.003,0.0034,0.0035,0.005,0.0051,0.005,0.0049,0,0,0,-0.006,-0.0047,-0.0057,-0.0035,-0.0038,-0.0043,-0.0041,0.0022,0.0014,0.0035,0.0036,0.0051,0.0052,0.005,0.0049,-0.0057,0,0,0,-0.006,-0.0058,-0.0058,-0.0055,-0.004,-0.0011,-0.0039,0.001,0.0017,0.0035,0.0051,0.0052,0.0051,0.005,-0.0053,-0.0126,0,0,0,-0.0069,-0.0058,-0.0066,-0.0056,-0.0056,-0.0013,-0.0016,0.0012,0.0017,0.005,0.0053,0.0051,0.005,-0.0049,-0.0119,-0.0181,0,0,0,-0.0056,-0.0089,-0.0066,-0.0099,-0.0056,-0.0075,-0.0016,-0.0005,0.0017,0.0051,0.0051,0.0049,-0.0048,-0.0114,-0.0176,-0.0046,0,0,0,-0.0096,-0.0094,-0.0116,-0.0095,-0.0136,-0.0076,-0.0115,-0.0054,0.0005,0.0039,0.0039,-0.0054,-0.0118,-0.018,-0.0122,0,0,0,0,-0.0128,-0.0145,-0.0151,-0.0168,-0.0167,-0.0182,-0.0122,-0.0106,-0.0077,0.0008,-0.0051,-0.0088,-0.0124,-0.0033,0.0043,0.0043,0.0043,0.0044,0.0044,-0.0169,-0.0183,-0.0226,-0.0246,-0.0259,-0.0248,-0.0265,-0.0232,-0.0145,-0.0155,-0.0171,-0.029,-0.0197,-0.0151,-0.0152,-0.0152,-0.0153,-0.0153,-0.0153,-0.0231,-0.0263,-0.0288,-0.0335,-0.036,-0.0385,-0.0397,-0.0362,-0.038,-0.0282,-0.031,-0.0146,-0.0164,-0.0162,-0.016,-0.0159,-0.0158,-0.0157,-0.0157,-0.025,-0.0276,-0.0305,-0.0389,-0.0457,-0.0476,-0.0539,-0.0531,-0.049,-0.0525,-0.0385,-0.0373,-0.0368,-0.0508,-0.0508,-0.0509,-0.051,-0.051,-0.051,-0.026,-0.0298,-0.0369,-0.045,-0.0511,-0.0572,-0.0623,-0.0626,-0.06,-0.0517,-0.0541,-0.041,-0.0398,-0.0388,-0.052,-0.0518,-0.0517,-0.0516,-0.0515,-0.0303,-0.0319,-0.0414,-0.0484,-0.0614,-0.0642,-0.0691,-0.0638,-0.0654,-0.0605,-0.0509,-0.0506,-0.0461,-0.0448,-0.0437,-0.0589,-0.0588,-0.0587,0,-0.0331,-0.0348,-0.0472,-0.0579,-0.0663,-0.0691,-0.0644,-0.0625,-0.0598,-0.0581,-0.068,-0.0577,-0.0571,-0.0521,-0.0508,-0.0497,0,0,0,-0.0378,-0.0393,-0.049,-0.0587,-0.0688,-0.0634,-0.0625,-0.0591,-0.059,-0.0528,-0.0559,-0.0566,-0.0511,-0.0548,-0.0473,-0.0459,-0.0439,0,0]}]]